RH
65 60 43 61 47 80 80 65 41 41 36 24 23 23 25 22 24 34 31 40 38 37 48 50 52 52 52 49 57 48 42 42 54 55 50 58 62 65 70 70 73 66 70 70 53 61 65 70 73
64 52 58 51 64 84 64 55 46 39 28 25 24 24 22 25 42 38 47 45 47 43 53 51 54 53 52 56 62 51 48 51 58 54 56 57 63 67 72 73 75 69 68 64 54 58 62 69 75
61 83 61 79 83 60 61 50 35 30 26 26 24 22 21 25 42 27 40 45 52 52 57 55 56 55 54 57 60 53 54 57 61 60 71 62 68 73 71 72 73 72 70 58 55 60 71 77 82
89 85 72 97 89 64 47 40 35 30 26 26 25 23 20 22 23 28 31 41 50 54 55 58 58 56 55 57 60 54 57 61 63 73 70 61 70 72 74 72 71 71 67 60 58 66 71 78 84
88 92 94 99 82 74 52 38 33 34 28 26 24 25 24 34 26 22 30 40 42 51 56 62 63 60 58 59 60 60 59 63 64 66 64 64 72 76 74 74 71 70 69 67 66 70 76 83 81
96 88 95 68 64 68 63 43 42 43 39 34 24 22 24 36 31 26 26 38 54 46 58 64 67 65 60 60 61 63 63 65 66 64 65 67 74 77 75 76 75 71 75 70 69 71 74 77 81
98 91 84 71 62 65 57 50 51 44 45 44 32 26 33 48 39 23 25 40 65 60 64 70 70 68 63 62 64 65 70 68 68 67 66 70 75 77 79 79 74 75 77 71 69 72 75 80 84
93 89 78 74 80 68 51 44 45 49 47 39 40 30 53 57 58 44 49 47 70 70 70 74 70 73 70 67 67 66 72 72 67 68 71 74 76 80 82 80 76 80 79 75 72 70 78 85 86
83 97 84 64 67 67 47 45 40 39 42 40 38 37 25 37 63 67 64 74 80 82 79 77 77 78 79 73 75 75 76 70 71 73 78 83 86 88 82 78 76 80 79 77 73 72 77 83 91
86 93 74 52 57 61 48 46 40 32 38 39 43 38 32 52 62 68 68 71 86 88 90 80 82 80 88 83 88 80 80 76 77 81 84 83 86 88 82 79 77 77 76 80 79 77 81 88 86
72 100 97 93 98 94 80 72 64 53 60 40 45 44 41 53 58 52 38 37 51 85 90 81 83 80 88 85 90 82 81 80 81 85 85 82 84 88 80 78 78 82 84 81 77 78 86 90 84
94 69 87 93 100 100 95 97 86 72 55 53 51 42 36 44 59 48 34 37 49 88 76 82 80 73 81 93 91 87 80 79 83 85 84 84 88 86 76 72 77 79 80 77 81 86 87 86 80
60 54 48 84 54 78 97 95 91 85 64 64 54 31 53 39 32 31 31 32 44 74 80 85 84 74 76 88 88 88 77 75 77 84 89 86 85 80 70 71 78 78 80 81 81 82 82 83 80
36 35 38 37 44 61 76 66 79 74 61 67 57 42 70 45 36 39 45 41 47 64 79 74 89 81 84 90 87 87 78 75 78 83 87 88 83 73 67 84 81 82 86 83 81 80 80 79 80
37 54 50 40 38 48 62 74 79 73 68 73 65 53 49 78 58 34 39 43 44 54 82 78 87 89 90 93 89 86 80 77 82 85 96 91 85 72 80 88 87 88 88 84 82 68 60 68 74
54 53 82 50 42 46 73 82 61 61 65 66 66 59 52 34 76 50 43 41 43 48 73 72 87 94 92 91 92 90 76 82 86 99 99 100 89 84 92 92 90 85 84 81 79 66 75 79 78
77 79 65 56 50 59 79 90 57 56 70 65 60 60 52 48 34 50 52 45 46 49 52 67 88 83 89 91 95 95 85 94 100 99 99 99 99 99 98 94 86 83 85 80 77 77 81 84 81
81 77 72 77 60 57 73 88 73 53 57 69 66 66 57 54 45 38 51 44 42 36 39 48 70 82 87 91 99 100 100 100 100 98 98 99 99 98 99 99 89 87 88 84 79 82 88 82 77
95 95 96 64 56 91 78 84 86 67 64 65 67 68 64 60 52 36 60 51 59 55 58 58 77 87 90 98 98 98 97 98 99 98 99 99 99 98 99 100 97 92 86 78 83 84 82 85 87
84 89 80 64 68 93 84 85 74 75 80 97 97 94 86 68 54 45 39 63 56 59 61 68 84 98 99 91 85 86 97 99 99 98 97 96 97 99 99 100 100 94 84 84 87 80 80 91 100
90 89 89 84 73 82 96 88 81 83 87 90 96 100 99 94 75 66 52 44 52 69 59 59 66 83 97 99 97 96 92 93 100 97 97 96 97 99 99 100 99 92 85 80 86 77 68 83 98
98 82 83 78 94 96 93 96 95 90 89 81 97 98 99 96 83 76 74 55 58 54 66 62 55 72 89 100 100 81 93 92 97 96 97 96 96 98 98 100 100 97 84 81 81 75 70 67 81
84 80 83 76 95 96 95 95 91 91 88 85 90 98 98 98 94 78 82 82 66 66 56 66 59 62 88 99 100 96 99 60 86 99 97 98 99 99 100 100 100 99 83 80 82 76 78 76 74
88 86 83 90 98 95 95 86 95 94 96 90 85 92 98 100 92 85 81 85 87 77 66 63 71 67 86 100 99 99 93 99 100 100 99 99 98 98 98 100 99 95 82 78 81 75 76 82 79
84 85 93 89 91 96 91 85 97 96 96 96 94 97 96 99 99 89 81 82 87 83 87 66 72 77 74 98 99 100 97 96 97 90 86 99 98 98 99 100 100 90 83 81 81 76 81 86 83
95 92 93 93 92 97 90 96 94 93 80 95 86 89 92 95 96 95 91 85 86 99 99 95 80 88 81 98 99 97 99 97 99 100 96 99 99 99 94 91 100 92 90 86 82 79 83 87 88
79 94 91 93 95 85 98 93 96 79 79 82 88 86 90 93 89 94 93 86 83 96 99 100 98 86 95 94 94 92 99 99 100 100 98 99 99 96 100 93 98 99 92 89 86 82 86 88 89
77 81 87 94 95 100 92 96 94 93 93 90 92 95 96 89 89 87 93 91 83 86 100 100 100 100 96 100 97 93 100 100 100 100 97 98 99 90 95 100 99 100 96 93 92 87 88 92 92
73 88 92 90 96 98 99 87 86 98 95 98 95 88 92 95 94 90 92 92 90 91 92 99 100 100 99 100 100 99 99 99 100 99 100 100 100 95 80 97 99 99 100 96 96 92 88 95 96
83 81 98 91 83 97 95 87 89 93 92 91 95 80 84 93 97 92 95 91 93 92 89 92 100 99 99 100 100 100 100 100 100 100 99 100 100 100 83 85 99 99 100 98 100 96 89 97 99
Wind_Speed
10 12 7 9 2 2 5 7 3 5 3 19 12 4 6 9 7 5 14 25 28 34 34 31 30 29 26 25 23 22 23 24 24 24 24 22 21 20 21 22 22 22 22 21 22 23 24 23 23
9 14 10 4 4 4 6 6 11 11 17 9 10 13 6 2 12 14 30 19 26 34 35 32 32 30 27 25 24 23 23 24 24 24 23 21 21 22 23 23 22 21 21 22 23 24 24 23 22
14 15 9 3 5 16 5 9 16 14 26 14 2 7 7 10 14 29 20 24 27 33 35 32 32 30 28 26 25 25 24 23 24 23 22 21 21 23 24 24 23 21 21 23 24 25 24 22 21
11 9 5 5 16 7 8 10 10 13 22 13 11 4 3 10 23 19 22 24 25 30 34 33 32 31 29 27 26 26 25 24 23 22 22 21 21 22 23 23 22 20 21 23 23 24 23 21 18
17 6 4 6 15 3 7 6 10 9 12 8 16 7 3 25 20 19 23 24 25 30 34 34 33 32 29 28 27 26 26 24 23 22 21 22 22 22 22 22 21 21 23 23 24 23 22 20 16
8 6 7 21 10 10 6 25 10 6 8 5 8 13 9 19 26 24 25 24 24 29 36 35 33 32 30 28 27 26 26 25 23 23 21 22 22 22 22 22 21 22 24 25 24 22 20 18 17
6 6 18 1 9 8 12 19 13 14 14 10 6 8 9 26 28 27 27 26 25 28 36 36 33 32 30 29 27 26 26 25 24 23 22 22 22 22 22 22 21 23 24 24 23 21 19 18 16
10 5 18 16 9 5 11 26 26 20 17 29 20 6 6 29 35 31 31 28 25 28 34 37 36 34 31 30 27 26 26 25 24 22 21 21 20 22 23 22 23 23 23 22 22 22 20 17 14
13 8 18 24 15 4 6 6 24 31 21 20 18 22 9 31 36 36 33 29 28 28 34 37 38 36 33 31 28 27 26 25 25 25 24 24 24 24 24 23 23 23 22 21 21 21 19 17 16
4 9 14 9 7 8 25 14 7 7 10 24 13 21 16 35 37 39 34 33 35 33 33 38 39 37 34 32 30 29 28 28 28 28 27 27 27 26 25 24 23 22 22 22 22 21 19 18 15
4 4 10 7 16 16 11 10 11 2 5 2 10 29 25 39 43 43 33 36 37 36 33 37 38 38 36 34 33 31 31 30 30 30 30 29 28 27 26 26 25 24 25 25 23 22 21 19 18
4 7 6 10 11 12 11 21 9 9 7 8 9 17 47 36 41 40 40 38 34 39 35 36 38 39 38 36 34 33 33 33 31 30 29 30 31 29 28 28 26 24 26 26 25 23 21 19 19
3 8 5 8 14 16 12 17 15 19 16 15 14 15 31 50 43 32 40 40 34 38 36 34 37 39 39 37 36 35 35 33 32 31 30 30 31 31 29 27 26 26 27 26 25 23 22 21 20
9 18 13 13 15 8 11 20 7 3 19 13 12 8 19 40 48 45 46 38 33 35 36 34 36 40 40 38 37 37 36 36 34 33 32 31 31 31 30 30 28 27 26 25 24 24 23 22 21
13 7 7 7 14 9 6 13 11 14 24 19 14 10 5 19 37 44 40 37 36 38 37 35 35 41 40 39 39 39 39 36 36 33 32 32 32 32 33 32 30 29 27 26 25 24 23 21 21
4 2 3 5 5 7 12 9 6 14 18 28 12 16 11 5 24 37 40 38 36 36 37 36 37 39 40 39 39 40 39 38 36 34 33 33 32 34 35 33 32 30 28 26 25 26 23 20 21
6 3 4 6 4 2 10 3 9 7 12 24 12 14 17 13 9 31 36 33 34 33 33 35 38 37 41 41 41 42 40 40 38 37 36 35 34 33 35 36 34 31 29 27 26 24 22 24 23
5 3 4 5 5 7 7 9 8 11 6 13 7 4 12 13 11 17 32 33 32 31 31 34 40 42 43 43 43 41 40 41 40 39 37 37 33 37 38 37 35 31 29 28 27 26 25 24 23
7 5 3 4 6 3 2 3 5 3 3 8 20 7 8 12 16 7 25 32 30 27 29 35 41 45 46 48 46 42 41 42 41 40 38 37 37 38 39 37 35 32 28 29 29 29 28 27 24
1 2 4 6 2 3 3 7 2 5 10 21 20 17 12 11 11 5 6 23 27 27 28 29 38 46 47 47 49 47 47 45 44 42 39 37 39 39 36 39 38 33 31 32 33 32 32 30 30
2 2 3 4 5 2 3 5 3 6 20 24 30 21 13 15 19 15 6 9 22 29 29 31 32 40 46 47 45 46 46 45 45 42 41 40 42 42 42 39 37 36 35 37 36 35 34 35 34
2 3 8 7 3 2 2 4 8 13 10 19 23 27 26 20 15 17 17 5 11 25 31 31 31 36 41 45 47 50 50 50 49 47 45 42 42 43 44 42 40 37 39 38 37 36 35 36 37
6 7 7 6 3 1 2 4 7 11 14 18 20 23 27 22 18 18 20 16 5 19 29 31 32 33 35 45 46 48 47 48 50 49 47 45 45 44 44 43 41 38 41 39 37 38 38 38 38
4 3 2 2 2 3 7 4 6 6 8 12 19 26 26 26 20 16 18 17 10 9 25 31 31 33 34 41 46 49 49 44 48 52 50 49 48 46 43 44 42 43 42 39 39 38 39 39 37
8 5 3 4 4 3 5 9 2 5 8 6 15 22 24 25 23 18 21 21 16 3 15 28 30 33 35 38 43 46 45 48 48 51 55 54 51 48 47 44 44 46 43 40 40 40 41 42 39
4 4 4 3 2 3 8 4 2 3 6 12 16 20 25 29 26 21 21 22 19 12 3 13 27 28 33 36 40 45 46 49 48 49 55 56 54 51 49 47 47 47 45 42 42 42 42 43 41
6 5 3 3 2 3 2 4 2 6 9 15 15 24 28 29 29 24 21 21 18 14 8 5 17 22 25 32 36 42 46 45 49 47 48 56 55 52 51 49 48 48 48 46 46 45 45 45 43
6 2 4 3 3 2 4 3 4 6 12 11 15 17 23 29 29 25 22 20 17 15 12 6 6 20 24 31 36 39 45 50 45 47 46 53 54 51 51 51 49 50 50 48 47 47 46 46 46
5 5 4 2 3 3 1 5 5 4 4 6 15 22 25 24 25 27 24 19 16 15 13 8 7 21 21 29 29 35 40 46 47 46 48 49 51 49 46 50 50 51 51 50 49 49 48 48 49
3 0 4 4 5 1 2 5 3 4 8 11 13 21 21 19 22 25 21 20 18 15 16 15 9 11 14 20 27 33 41 44 44 45 49 49 50 42 47 48 51 49 50 50 51 52 51 51 52
Wind_Direction
232 213 191 168 170 90 199 236 237 190 235 223 225 174 208 209 161 205 155 164 170 169 171 168 167 164 161 158 156 154 150 148 148 145 142 140 139 137 137 134 134 133 126 126 126 126 122 119 117
226 203 183 237 202 180 216 220 209 220 202 192 241 246 231 166 133 148 151 167 177 172 172 170 168 166 163 159 156 156 153 150 149 148 145 143 140 137 138 137 136 137 136 130 128 125 122 120 118
200 177 174 207 210 220 194 198 224 231 229 236 351 212 196 162 160 157 166 162 174 175 174 171 169 168 164 161 157 158 157 154 152 151 147 146 143 142 142 143 141 141 136 133 131 129 125 122 117
184 189 239 227 224 235 181 198 217 237 249 240 233 272 198 173 153 168 159 163 168 178 177 174 171 170 167 164 160 160 159 157 155 154 153 148 147 148 149 146 145 143 140 137 134 132 129 126 121
196 188 222 236 233 259 228 199 196 206 245 234 216 233 184 151 158 171 164 167 172 178 180 177 173 171 168 167 164 162 162 161 159 159 156 153 153 152 152 149 147 146 144 141 140 137 133 127 124
225 213 218 227 217 215 272 230 222 202 228 257 194 191 170 189 168 173 171 173 182 178 181 178 176 173 171 169 168 166 164 165 164 163 162 158 157 155 154 153 150 150 148 146 146 141 136 131 125
251 222 231 35 223 210 218 232 245 232 242 242 235 167 180 167 171 169 172 177 180 182 182 180 176 176 175 173 171 170 168 169 168 167 166 164 160 160 159 155 154 153 152 151 150 146 142 136 131
248 264 242 236 232 262 195 226 238 232 255 245 249 221 169 168 170 175 175 174 177 182 185 182 178 177 177 175 174 173 172 172 170 168 166 166 166 165 159 159 159 158 158 157 155 151 149 145 140
258 238 235 230 221 250 255 207 239 246 243 254 233 236 223 177 173 174 175 173 176 180 187 185 180 180 178 176 176 175 174 172 169 170 169 166 165 167 165 164 162 163 163 162 159 157 155 150 147
271 248 243 252 278 241 236 247 245 225 223 248 224 241 234 179 171 172 180 180 181 181 185 187 184 182 179 178 177 176 174 173 174 174 171 172 170 172 167 164 167 167 165 164 162 159 156 153 150
266 285 358 333 354 357 318 327 315 241 264 107 197 232 236 185 174 177 184 196 193 188 183 187 187 184 183 179 179 177 177 177 180 178 177 175 172 173 172 171 171 168 168 167 166 162 160 159 151
277 255 301 310 335 338 319 319 328 285 242 292 302 219 224 202 186 186 190 195 196 194 190 185 189 187 187 183 183 180 180 183 183 183 182 177 174 177 176 175 173 172 169 170 167 167 164 164 158
252 278 289 303 296 300 300 290 284 283 260 291 294 265 207 196 200 205 200 197 198 199 193 187 191 192 188 187 186 183 185 186 187 184 185 183 181 179 179 179 175 172 172 173 172 171 168 165 160
274 292 293 289 294 264 277 288 279 260 248 283 282 323 222 205 202 202 197 193 196 201 197 196 196 196 191 190 189 188 188 189 190 188 187 188 186 183 181 179 176 175 176 176 174 168 165 164 163
300 284 312 255 227 244 213 270 237 268 251 287 292 290 249 215 198 197 194 197 196 200 199 200 200 199 193 193 193 191 193 190 193 192 189 191 189 184 184 180 179 180 177 176 177 177 174 173 173
315 322 18 284 295 225 138 280 215 261 242 256 277 291 319 302 211 198 196 199 200 200 200 202 201 203 199 197 197 197 195 193 194 192 192 193 189 187 190 184 184 182 181 184 183 180 180 185 179
360 239 281 300 339 273 186 259 224 223 221 258 243 279 287 315 254 211 203 204 200 204 201 204 204 202 207 202 203 203 197 194 192 194 192 192 195 194 198 190 186 187 188 188 190 193 200 188 181
260 345 288 246 302 339 307 246 301 250 219 282 272 299 290 305 306 232 212 208 210 206 212 212 209 206 210 206 206 206 199 193 194 198 197 197 196 197 197 194 191 193 194 196 197 198 188 190 187
239 272 317 268 304 344 4 260 260 269 147 263 285 314 297 337 336 270 225 215 214 212 211 211 211 210 210 207 205 207 198 198 198 201 202 199 198 199 201 201 197 199 202 201 196 192 191 183 178
225 89 278 277 218 74 326 283 305 242 70 47 17 21 12 347 343 26 209 206 214 212 210 210 216 215 213 214 213 209 203 202 200 201 202 204 204 205 204 206 202 205 203 199 195 197 188 181 175
5 150 296 262 293 165 262 302 110 44 63 42 24 19 12 0 355 1 358 206 205 212 215 216 218 220 219 218 214 209 209 202 199 203 202 205 208 207 205 205 209 209 208 203 199 201 199 186 182
7 355 321 311 7 290 82 147 36 354 51 33 14 5 6 357 342 353 357 323 214 203 216 221 223 225 224 217 212 219 210 202 201 204 205 205 209 209 208 208 212 218 207 205 203 203 203 197 187
235 318 297 295 278 204 314 83 358 25 359 3 357 2 4 356 350 352 352 352 293 206 207 223 226 228 229 224 219 223 218 213 206 203 206 208 209 210 209 213 215 212 208 207 207 205 204 202 196
329 14 345 272 309 21 346 96 354 25 347 340 349 353 2 352 1 351 347 353 356 221 208 214 229 230 225 218 224 233 230 218 202 204 207 207 209 211 213 213 213 211 211 209 208 209 208 206 204
359 31 11 17 12 34 360 58 29 332 345 342 339 347 352 0 1 351 352 352 7 357 210 209 218 232 233 225 225 228 236 230 223 214 211 208 210 212 210 211 211 212 213 211 210 210 209 207 208
307 111 133 147 26 345 13 88 226 228 333 345 353 352 358 2 1 1 355 348 4 360 291 217 214 223 232 227 228 232 237 236 232 225 218 212 213 215 212 211 213 214 215 213 213 213 212 210 210
314 34 200 75 271 40 13 343 275 351 348 355 360 359 358 2 359 0 348 348 353 353 355 277 218 214 235 237 236 236 235 240 236 228 229 221 215 218 218 215 214 216 216 215 213 214 214 213 213
106 230 36 358 50 26 301 240 215 328 338 335 348 351 350 360 359 358 351 344 343 343 345 327 240 224 228 236 242 240 225 230 237 232 240 230 224 223 225 220 218 218 218 217 215 216 216 216 216
351 17 359 117 87 143 334 278 207 219 230 285 316 353 359 0 356 358 353 347 334 330 336 316 289 224 234 232 227 242 237 240 236 242 230 233 227 224 229 228 225 222 221 219 219 219 219 218 218
131 187 126 96 311 106 149 275 245 233 294 314 328 355 358 359 356 359 357 351 344 334 325 313 314 231 242 245 237 229 236 239 240 238 238 237 231 232 225 233 231 228 227 225 222 222 221 220 220